This demonstration page uses our WeatherBlox Daily Observations layout. Learn more.

Left ArrowRight Arrow

Hourly Observations for April 18, 2020

Temp ( °F °C ) Dew Point ( °F °C ) Humidity (%) Winds ( mph kmh ) Pressure ( in mb ) Visibility ( mi km ) Precip ( " mm )
12:53 am 00:53 Clear 58 14.4 46 7.8 65 65 S 7 11 29.94 1014 10 16 0.00 0.00
1:53 am 01:53 Clear 56 13.3 46 7.8 70 70 SSW 5 7 29.95 1014 10 16 0.00 0.00
2:53 am 02:53 Clear 52 11.1 46 7.8 80 80 undefined N/A 29.96 1014 10 16 0.00 0.00
3:53 am 03:53 Mostly Cloudy 53 11.7 46 7.8 77 77 WSW 6 9 29.97 1015 10 16 0.00 0.00
4:53 am 04:53 Partly Cloudy 52 11.1 46 7.8 80 80 Calm 29.98 1015 10 16 0.00 0.00
5:53 am 05:53 Mostly Cloudy 51 10.6 46 7.8 83 83 Calm 30.00 1016 10 16 0.00 0.00
6:53 am 06:53 Cloudy 53 11.7 47 8.3 80 80 Calm 30.01 1016 10 16 0.00 0.00
7:53 am 07:53 Cloudy 54 12.2 47 8.3 77 77 S 7 11 30.02 1017 10 16 0.00 0.00
8:53 am 08:53 Cloudy 55 12.8 47 8.3 74 74 S 8 13 30.03 1017 10 16 0.00 0.00
9:53 am 09:53 Cloudy 55 12.8 47 8.3 74 74 VRB 5 7 30.04 1017 10 16 0.00 0.00
10:53 am 10:53 Cloudy 57 13.9 48 8.9 72 72 S 7 11 30.04 1017 10 16 0.00 0.00
11:53 am 11:53 Mostly Cloudy 61 16.1 49 9.4 65 65 E 9 15 30.03 1017 10 16 0.00 0.00
12:53 pm 12:53 Cloudy 61 16.1 49 9.4 65 65 VRB 3 6 30.02 1017 10 16 0.00 0.00
1:53 pm 13:53 Cloudy 63 17.2 49 9.4 60 60 SE 7 11 30.00 1016 10 16 0.00 0.00
2:53 pm 14:53 Cloudy 65 18.3 50 10 59 59 SE 7 11 29.98 1015 10 16 0.00 0.00
3:53 pm 15:53 Mostly Cloudy 66 18.9 49 9.4 54 54 SSE 12 19 29.96 1015 10 16 0.00 0.00
4:53 pm 16:53 Mostly Cloudy 67 19.4 50 10 55 55 SSE 12 19 29.94 1014 10 16 0.00 0.00
5:53 pm 17:53 Partly Cloudy 66 18.9 50 10 56 56 SSE 8 13 29.94 1014 10 16 0.00 0.00
6:53 pm 18:53 Sunny 66 18.9 49 9.4 54 54 SSW 9 15 29.93 1014 10 16 0.00 0.00
7:53 pm 19:53 Clear 63 17.2 50 10 63 63 Calm 29.93 1014 10 16 0.00 0.00
8:53 pm 20:53 Clear 60 15.6 50 10 70 70 Calm 29.94 1014 10 16 0.00 0.00
9:53 pm 21:53 Mostly Clear 61 16.1 49 9.4 65 65 SW 5 7 29.97 1015 10 16 0.00 0.00
10:53 pm 22:53 Partly Cloudy 62 16.7 46 7.8 56 56 S 14 22 29.97 1015 10 16 0.00 0.00
11:53 pm 23:53 Partly Cloudy 60 15.6 46 7.8 60 60 SSW 7 11 29.98 1015 10 16 0.00 0.00

Powered by AerisWeather